Flag for U.S.A. Weather past 2 weeks in Honolulu, Hawaii, U.S.A.

Now
79 °F

Passing clouds.


Feels Like: 81 °F
Forecast: 74 / 85 °F
Wind: 7 mph from Northeast

Location: Honolulu International Airport

Current Time: Aug 3, 2015 at 3:11:13 AM

Latest Report: Aug 3, 2015 at 1:53 AM


Visibility: 10 mi

Pressure: 29.88 "Hg

Humidity: 67%

Dew point: 67 °F

Location of HonoluluLocation

Historic Weather in Honolulu — Graph

°F

Honolulu temperature yesterday

Maximum temperature yesterday: 90 °F (at 1:53 PM)
Minimum temperature yesterday: 79 °F (at 2:53 AM)
Average temperature yesterday: 83 °F

Past Weeks' High & Low Weather Summary

 TemperatureHumidityPressure
High91 °F (Jul 30, 12:53 PM)94% (Jul 22, 6:53 AM)30.02 "Hg (Jul 22, 6:53 AM)
Low74 °F (Jul 26, 3:53 AM)41% (Jul 21, 1:53 PM)29.84 "Hg (Aug 2, 4:53 PM)
Average83 °F64%29.95 "Hg
* Reported Jul 19 1:53 AM — Aug 3 1:53 AM, Honolulu, Weather by CustomWeather, © 2015

Note: Actual official high and low records may vary slightly from our data, if they occured in-between our weather recording intervals... More about our weather records

Advertising

Honolulu weather history for previous 24 hours

 ConditionsComfort  
Time TempWeatherWind HumidityBarometerVisibility
1:53 AM
Mon, Aug 3
79 °FPassing clouds.7 mph67%29.88 "Hg10 mi
12:53 AM79 °FPassing clouds.10 mph69%29.89 "Hg10 mi
11:53 PM
Sun, Aug 2
80 °FPassing clouds.8 mph67%29.90 "Hg10 mi
10:53 PM80 °FPassing clouds.7 mph67%29.91 "Hg10 mi
9:53 PM80 °FPassing clouds.10 mph64%29.91 "Hg10 mi
8:53 PM80 °FPassing clouds.12 mph64%29.90 "Hg10 mi
7:53 PM81 °FPassing clouds.13 mph62%29.89 "Hg10 mi
6:53 PM82 °FPassing clouds.17 mph60%29.87 "Hg10 mi
5:53 PM85 °FPassing clouds.20 mph55%29.85 "Hg10 mi
4:53 PM86 °FPassing clouds.17 mph53%29.84 "Hg10 mi
3:53 PM87 °FScattered clouds.22 mph51%29.85 "Hg10 mi
2:53 PM89 °FScattered clouds.23 mph48%29.86 "Hg10 mi
1:53 PM90 °FScattered clouds.23 mph48%29.87 "Hg10 mi
12:53 PM89 °FScattered clouds.22 mph50%29.88 "Hg10 mi
11:53 AM88 °FScattered clouds.18 mph52%29.89 "Hg10 mi
10:53 AM87 °FScattered clouds.18 mph51%29.91 "Hg10 mi
9:53 AM87 °FScattered clouds.21 mph53%29.90 "Hg10 mi
8:53 AM85 °FScattered clouds.13 mph57%29.90 "Hg10 mi
7:53 AM82 °FScattered clouds.8 mph60%29.91 "Hg10 mi
6:53 AM80 °FScattered clouds.6 mph67%29.90 "Hg10 mi
5:53 AM79 °FPassing clouds.7 mph69%29.89 "Hg10 mi
4:53 AM79 °FPassing clouds.6 mph67%29.88 "Hg10 mi
3:53 AM79 °FPassing clouds.3 mph67%29.88 "Hg10 mi
Weather by CustomWeather, © 2015

See weather overviewHow to use our weather pages